Location: Stara Lesna
(49.1528°N, 20.2911°E)
Time: 02:43:18
(UTC+02:00)

Gbstr 26 Del rocket - Pass Details

Date: 13 July 2020
Orbit: 492 x 1264 km, 51.8° (Epoch: 11 August)

Event Time Altitude Azimuth Distance (km) Brightness Sun altitude
Rises 00:10:55 0° 262° (W) 2,567 6.3 -18.7°
Reaches altitude 10° 00:13:02 10° 265° (W) 1,694 5.3 -18.7°
Maximum altitude 00:16:46 67° 349° (N) 568 3.0 -18.8°
Drops below altitude 10° 00:20:53 10° 72° (ENE) 1,870 5.7 -18.9°
Sets 00:23:19 0° 76° (ENE) 2,865 6.6 -18.9°
